Terminal Aerodrome Forecast
Issued by NWS

Current Version | Previous Version | Graphics & Text | Print | Product List | Glossary On
Versions: 1 2 3 4 5 6 7 8 9 10 11 12 13 14 15 16 17 18 19
831
FTUS41 KILN 211736
TAFLUK
TAF
KLUK 211736Z 2118/2218 31009KT P6SM SCT025 OVC060
     FM220000 36008KT P6SM VCSH OVC060
     FM220300 03009KT P6SM -RA OVC060
     FM220800 04011G20KT P6SM -RA OVC022
     FM221400 05013G20KT 5SM -RA OVC022=

USA.gov is the U.S. government's official web portal to all federal, state and local government web resources and services.